Flag for U.S.A. Weather past 2 weeks in Bakersfield, California, U.S.A.

Now
95 °F

Sunny.


Feels Like: 91 °F
Forecast: 80 / 103 °F
Wind: 8 mph from Northwest

Location: Meadows Field

Current Time: Jul 31, 2015 at 11:32:18 AM

Latest Report: Jul 31, 2015 at 10:54 AM


Visibility: 10 mi

Pressure: 29.93 "Hg

Humidity: 17%

Dew point: 43 °F

Location of BakersfieldLocation

Historic Weather in Bakersfield — Graph

°F

Bakersfield temperature yesterday

Maximum temperature yesterday: 98 °F (at 12:54 PM)
Minimum temperature yesterday: 82 °F (at 4:54 AM)
Average temperature yesterday: 90 °F

Past Weeks' High & Low Weather Summary

 TemperatureHumidityPressure
High106 °F (Jul 29, 3:54 PM)79% (Jul 18, 7:54 PM)30.07 "Hg (Jul 18, 7:54 PM)
Low67 °F (Jul 24, 4:54 AM)10% (Jul 30, 1:54 AM)29.64 "Hg (Jul 17, 5:54 PM)
Average85 °F31%29.87 "Hg
* Reported Jul 16 9:54 AM — Jul 31 9:54 AM, Bakersfield, Weather by CustomWeather, © 2015

Note: Actual official high and low records may vary slightly from our data, if they occured in-between our weather recording intervals... More about our weather records

Advertising

Bakersfield weather history for previous 24 hours

 ConditionsComfort  
Time TempWeatherWind HumidityBarometerVisibility
9:54 AM
Fri, Jul 31
92 °FSunny.5 mph22%29.93 "Hg10 mi
8:54 AM88 °FSunny.No wind28%29.95 "Hg10 mi
7:54 AM86 °FSunny.3 mph32%29.95 "Hg10 mi
6:54 AM82 °FClear.5 mph34%29.93 "Hg10 mi
5:54 AM84 °FClear.8 mph29%29.91 "Hg10 mi
4:54 AM83 °FPleasantly warm.7 mph28%29.90 "Hg10 mi
3:54 AM82 °FClear.No wind32%29.89 "Hg10 mi
2:54 AM81 °FClear.3 mph35%29.89 "Hg10 mi
1:54 AM83 °FClear.No wind30%29.90 "Hg10 mi
12:54 AM87 °FClear.7 mph26%29.90 "Hg10 mi
11:54 PM
Thu, Jul 30
86 °FClear.7 mph32%29.91 "Hg10 mi
10:54 PM86 °FClear.5 mph32%29.90 "Hg10 mi
9:54 PM88 °FClear.3 mph33%29.90 "Hg10 mi
8:54 PM88 °FSunny.5 mph30%29.89 "Hg10 mi
7:54 PM91 °FSunny.3 mph26%29.88 "Hg10 mi
6:54 PM94 °FSunny.3 mph22%29.88 "Hg10 mi
5:54 PM95 °FSunny.6 mph18%29.89 "Hg10 mi
4:54 PM95 °FLight rain. Sunny.No wind19%29.90 "Hg10 mi
3:54 PM95 °FSunny.6 mph19%29.90 "Hg10 mi
2:54 PM98 °FSunny.8 mph13%29.90 "Hg10 mi
1:54 PM97 °FSunny.12 mph17%29.91 "Hg10 mi
12:54 PM98 °FSunny.9 mph15%29.92 "Hg10 mi
11:54 AM96 °FSunny.9 mph18%29.93 "Hg10 mi
Weather by CustomWeather, © 2015

See weather overviewHow to use our weather pages